www.pogodaiklimat.ru

Погода и климат >> Архив погоды >> Китай >> Внутренняя Монголия >> Мандал


ПОГОДА в Мандале

  • Прогноз погоды в Мандале
  • Монитор погоды в Мандале

АРХИВ ПОГОДЫ в Мандале

Время (UTC), дата Ветер
(напр.,м/с)
 
Видим.   Явления Облачность Т
(С)
Тd
(С)
f
(%)
Тe
(С)
Тes
(С)
Комфортность P
(гПа)
Po
(гПа)
Тmin
(С)
Tmax
(С)
R
(мм)
R24
(мм)
S
(см)
12 14.05 З 4 17 км 9/9 1000 м
[]
+21.6 -11.3 10 +20 +20 999.7 866.6
15 14.05 З 4 19 км н/о +17.0 -1.6 28 +17 +17 998.7 864.7
18 14.05 З 3 18 км ?/? +15.2 -1.4 32 +15 +15 997.6 866.0 +25.5
21 14.05 З 6 12 км н/о +13.7 0.0 39 +12 +12 998.7 863.3
00 15.05 З 16
{25}
н/о пыльный позёмок ясно +11.4 -13.5 16 +7 +7 1003.2 869.4
03 15.05 З 16
{25}
8000 м ясно +14.2 -27.4 4 +11 +11 1004.6 868.6
06 15.05 З 12
{25}
16 км 9/9
[]
+16.6 -25.7 4 +15 +15 1003.9 869.7 +11.2
09 15.05 З 13
{24}
14 км 8/8
[]
+18.1 -24.7 4 +17 +17 1002.0 868.0
12 15.05 З 8
{22}
13 км ясно +16.5 -19.5 7 +15 +15 1003.1 868.2
15 15.05 З 4 21 км н/о +12.8 -12.4 16 +12 +12 1003.9 867.4
18 15.05 З 6 17 км ?/? +13.2 -10.6 18 +11 +11 1002.7 868.3 +18.6
21 15.05 З 6 23 км н/о +12.3 -10.7 19 +10 +10 1001.7 865.3
00 16.05 З 9 24 км ясно +18.8 -11.2 12 +18 +18 1001.4 868.3
03 16.05 З 10 26 км ясно +23.8 -12.4 8 +21 +22 комфорт 1001.1 869.7
06 16.05 З 8 18 км 1/1 600 м
[]
+26.3 -14.1 6 +23 +26 комфорт 999.0 867.1 +11.9
09 16.05 З 7 22 км ясно +26.8 -18.6 4 +23 +24 комфорт 997.4 867.7
12 16.05 З 4 30 км 8/8 600 м
[]
+24.0 -23.8 3 +21 +21 комфорт 996.8 865.9
15 16.05 В 6 30 км н/о +17.8 -7.6 17 +17 +17 998.8 865.1
18 16.05 В 4 30 км ?/? +14.6 -8.1 20 +14 +14 998.2 866.7 +27.3
21 16.05 СВ 3 30 км н/о +14.2 -9.1 19 +14 +14 999.1 863.9
00 17.05 З 2 30 км 9/9 1000 м
[]
+15.4 -8.1 19 +16 +16 1001.7 869.4
03 17.05 В 3 22 км 3/3
[]
+20.7 -7.7 14 +20 +30 1001.4 868.6
06 17.05 З 3 28 км 9/9 600 м
[]
+23.3 -6.6 13 +21 +22 комфорт 1000.3 867.9 +13.9
09 17.05 СВ 11 6000 м 9/9 600 м
[]
+19.7 -6.0 17 +18 +18 999.9 866.9
12 17.05 СВ 10 12 км 9/9 1000 м
[]
+14.5 -13.6 13 +12 +12 1004.2 869.6
15 17.05 В 5
{18}
30 км н/о +10.9 -4.7 33 +9 +9 1006.1 868.4
18 17.05 В 4
{18}
30 км слаб. дождь ?/? +9.1 +3.1 66 +6 +6 1006.6 872.2 +24.4
21 17.05 Ю 2 30 км н/о +8.9 +0.6 56 +8 +8 1006.9 868.2
00 18.05 В 4 30 км 9/9 1000 м
[]
+10.3 +1.7 55 +8 +8 1008.5 872.2 0.0
03 18.05 В 4 30 км ясно +13.6 +0.6 41 +12 +24 опасность
простуды
1008.5 871.7
06 18.05 В 3 30 км слаб. дождь 10/10 1000 м
[]
+10.0 +1.6 56 +8 +8 1011.4 873.4 +8.7 0.2
09 18.05 ЮВ 2 30 км в посл. час дождь 10/10 1000 м
[]
+8.5 +3.1 69 +7 +7 1011.8 872.3
12 18.05 н/о
15 18.05 З 6 30 км н/о +8.2 +2.4 67 +4 +4 1010.0 870.6
18 18.05 З 10 10 км ?/? +4.6 -1.8 63 -2 -2 1009.6 870.9 +13.8 0.4
21 18.05 СЗ 12
{19}
24 км слаб. дождь ?/? +3.3 +0.2 80 -4 -4 1010.1 868.4
00 19.05 СЗ 13
{21}
30 км 3/3 600 м
[]
+1.7 -1.7 78 -7 -7 1017.3 876.3 0.5
03 19.05 СЗ 14 23 км ясно +6.4 -9.1 32 +1 +1 1020.1 878.4
06 19.05 С 14
{22}
19 км 4/4 600 м
[]
+9.5 -14.3 17 +5 +5 1021.4 880.9 +1.2
09 19.05 СЗ 13
{26}
30 км 4/4 600 м
[]
+10.3 -16.0 14 +6 +6 1020.5 880.6
12 19.05 С 6
{26}
30 км 6/6 1000 м
[]
+8.9 -13.5 19 +6 +6 1022.0 880.6
15 19.05 З 3 30 км н/о +5.9 -9.5 32 +4 +4 1021.6 879.5
18 19.05 З 5 30 км ?/? +4.8 -13.1 26 +1 +1 1020.7 880.4 +11.1
21 19.05 З 2 30 км н/о +1.3 -11.5 38 -1 -1 1021.0 876.8
00 20.05 З 5 30 км ясно +8.9 -12.8 20 +6 +9 1019.3 880.0
03 20.05 З 8 30 км ясно +14.6 -19.3 8 +13 +16 1017.5 879.9
06 20.05 СЗ 9
{22}
30 км ясно +18.4 -18.1 7 +17 +19 1013.7 876.3 +1.0
09 20.05 С 7
{22}
30 км ясно +20.0 -18.7 6 +19 +20 1012.1 877.6
12 20.05 С 3 30 км ясно +16.5 -14.1 11 +16 +16 1011.6 875.0
15 20.05 З 1 30 км н/о +10.4 -9.8 23 +11 +11 1011.7 873.0
18 20.05 СЗ 4 30 км ?/? +9.7 -9.4 25 +8 +8 1010.4 874.6 +20.0
21 20.05 СЗ 5 30 км н/о +9.9 -9.2 25 +8 +8 1010.1 871.4
00 21.05 СЗ 6 30 км ясно +15.1 -11.3 15 +14 +16 1010.7 875.6
03 21.05 СЗ 8 30 км ясно +20.8 -14.7 8 +19 +22 1010.6 876.7
06 21.05 С 5 30 км ясно +24.3 -20.4 4 +21 +30 комфорт 1008.3 874.0 +8.9
09 21.05 СЗ 8 30 км ясно +25.0 -19.9 4 +21 +23 комфорт 1006.2 874.6

 

Местоположение метеостанции Мандал (Внутренняя Монголия, Китай): широта 42.53 долгота 110.13 высота над уровнем моря 1223 м.

В архиве по умолчанию представлена погода в Мандале за последнюю неделю. Архивные данные за месяц целиком и за предыдущие месяцы, начиная с января 2011 года, Вы можете получить, выбрав интересующий диапазон дат из раскрывающегося списка и нажав кнопку "Ввод!".


*Определитесь, кто Вы:
робот инопланетянин человек

Внимание! Время в таблицах - всемирное. Для получения местного времени необходимо прибавить поправку, которая равна 8 ч.

Смотрите также архив погоды в соседних городах и на ближайших метеорологических станциях:

Погода в Дархан-Мумингане (Внутренняя Монголия, Китай) (96 км)
Погода в Хатанбулаге (Монголия) (104 км)
Погода в Хэй Лю Чжэнь (Внутренняя Монголия, Китай) (171 км)
Погода в Замун-Ууде (Монголия) (196 км)
Погода в Эрэн-Хото (Внутренняя Монголия, Китай) (196 км)
Погода в Чжурихе Чжень (Внутренняя Монголия, Китай) (228 км)
Погода в Хух-Хото (Внутренняя Монголия, Китай) (230 км)
Погода в Ханбогде (Монголия) (253 км)
Погода в Сайншанде (Монголия) (264 км)
Погода в Цзинине (Шаньдун, Китай) (295 км)

Пояснения к столбцам:

Ветер - указаны скорость ветра в м/с - средняя за 10 мин, порывы в срок и между сроками (в фигурных скобках) и направление, откуда дует ветер: С - северный, СВ - северо-восточный, В - восточный, ЮВ - юго-восточный, Ю - южный, ЮЗ - юго-западный, З - западный, СЗ - северо-западный.
Видимость - горизонтальная дальность видимости в метрах или километрах. При видимости от 1 до 10 км при отсутствии осадков обычно наблюдается дымка, при ухудшении видимости до 1 км и менее - туман. В сухую погоду видимость может ухудшаться дымом, пылью или мглою.
Явления - указаны атмосферные явления, наблюдавшиеся в срок или в последний час перед сроком; фигурными скобками обозначены явления, наблюдавшиеся между сроками (за 1-3 часа до срока); квадратными скобками обозначены град или гололедные отложения с указанием их диаметра в мм.
Облачность - указаны через наклонную черту общая и нижняя облачность в баллах и высота нижней границы облаков в метрах; квадратными скобками обозначены формы облаков: Ci - перистые, Cs - перисто-слоистые, Cc - перисто-кучевые, Ac - высококучевые, As - высокослоистые, Sc - слоисто-кучевые, Ns - слоисто-дождевые, Cu - кучевые, Cb - кучево-дождевые. Подробнее классификацию облаков см. в Атласе облаков (PDF).
T - Температура воздуха - температура, измеренная на высоте 2 м над землей.
Td - Температура точки росы - температура, при понижении до которой содержащийся в воздухе водяной пар достигнет насыщения.
f - Относительная влажность воздуха - влажноcть воздуха, измеренная на высоте 2 м над землей.
Te - Эффективная температура - температура, которую ощущает одетый по сезону человек в тени. Характеристика душности погоды. При расчете учитывается влияние влажности воздуха и скорости ветра на теплоощущения человека.
Tes - Эффективная температура на солнце - температура, которую ощущает человек, с поправкой на солнечный нагрев. Характеристика знойности погоды. Зависит от высоты солнца над горизонтом, облачности и скорости ветра. Ночью, в пасмурную погоду, а также при ветре 12 м/с и более поправка равна нулю.
P - Атмосферное давление - приведенное к уровню моря атмосферное давление.
Po - Атмосферное давление - измеренное на уровне метеостанции атмосферное давление.
Tmin - Минимальная температура - минимум температуры воздуха на высоте 2 м над землей.
Tmax - Максимальная температура - максимум температуры воздуха на высоте 2 м над землей.
R - Количество осадков - Количество выпавших осадков за период времени, мм. При наведении курсора мыши на число - период времени, за который выпало указанное количество осадков.
R24 - Количество осадков - Количество выпавших осадков за 24 часа, мм.
S - Снежный покров - Высота снежного покрова, см. При наведении курсора мыши на число - состояние снежного покрова и степень покрытия местности в баллах.